BEIDOU IGSO-6 (C13)

Last updated on Oct. 29, 2020, 5:53 a.m. UTC

1 41434U 16021A   20301.80049572 -.00000156  00000-0  00000-0 0  9990
2 41434  57.2287  59.1056 0042183 204.1521 157.0169  1.00273634 16853
UTC
Height (km)
Latitude
Longitude
Inclination
Orbital Period
UTC large
Height (km)
Speed (km/s)
/
Latitude / Longitude
Inclination (degrees)
Orbital Period (minutes)
Azimuth
Elevation
Range (km)
Doppler Factor
iOS Compass Heading
iOS Angle

Next 30 passes for location: Hong Kong

Rise time Rise Azimuth (degrees) Set time Set Azimuth (degrees) Duration Max altitude (degrees)

No matching passes for this satellites